Weather History for KHQU - December, 2012

Change the Weather History Date:

Friday, December 14, 2012

  Actual Average (KAGS) Record (KAGS)
Temperature  
Mean Temperature 42 °F 47 °F  
Max Temperature 58 °F 60 °F 80 °F (1948)
Min Temperature 27 °F 35 °F 10 °F (2010)
Degree Days  
Heating Degree Days 22 18  
Month to date heating degree days 228  
Since 1 July heating degree days 650  
Cooling Degree Days 0 0  
Month to date cooling degree days 0  
Year to date cooling degree days 2086  
Moisture  
Dew Point 35 °F    
Average Humidity 88    
Maximum Humidity 100    
Minimum Humidity 53    
Precipitation  
Precipitation 0.00 in 0.11 in 1.54 in (1900)
Month to date precipitation 1.47  
Year to date precipitation 41.65  
Sea Level Pressure  
Sea Level Pressure 30.35 in    
Wind  
Wind Speed 0 mph (ENE)    
Max Wind Speed 6 mph    
Max Gust Speed -    
Visibility 9 miles    
Events      
T = Trace of Precipitation, MM = Missing Value Source: NWS Daily Summary

Daily Weather History Graph

Daily Weather History Graph

Search for Another Location

Airport or City:

Trip Planner

Search our weather history database for the weather conditions in past years. The results will help you decide how hot, cold, wet, or windy it might be!

Date:

Astronomy

Dec. 14, 2012 Rise Set
Actual Time 7:26 AM EST 5:23 PM EST
Civil Twilight 6:59 AM EST 5:51 PM EST
Nautical Twilight 6:27 AM EST 6:22 PM EST
Astronomical Twilight 5:57 AM EST 6:52 PM EST
Moon 8:32 AM EST (12/14) 7:11 PM EST (12/14)
Length of Visible Light 10h 51m
Length of Day
9h 56m
Waxing Crescent, 3% of the Moon is Illuminated
Dec 14
Waxing Crescent
Dec 20
First Quarter
Dec 28
Full
Jan 4
Last Quarter
Jan 11
New

Hourly Weather History & Observations

Time (EST) Temp. Windchill Dew Point Humidity Pressure Visibility Wind Dir Wind Speed Gust Speed Precip Events Conditions
12:15 AM 31.6 °F - 31.6 °F 100% 30.39 in 7.0 mi Calm Calm - N/A   Clear
12:35 AM 31.5 °F - 31.5 °F 100% 30.39 in 7.0 mi Calm Calm - N/A   Clear
12:55 AM 30.9 °F - 30.9 °F 100% 30.39 in 7.0 mi Calm Calm - N/A   Clear
1:15 AM 30.4 °F - 30.4 °F 100% 30.39 in 7.0 mi Calm Calm - N/A   Clear
1:35 AM 30.0 °F - 30.0 °F 100% 30.38 in 7.0 mi Calm Calm - N/A   Clear
1:55 AM 30.0 °F - 30.0 °F 100% 30.37 in 7.0 mi Calm Calm - N/A   Clear
2:15 AM 29.8 °F - 29.8 °F 100% 30.37 in 7.0 mi Calm Calm - N/A   Clear
2:35 AM 29.7 °F - 29.7 °F 100% 30.36 in 7.0 mi Calm Calm - N/A   Clear
2:55 AM 28.9 °F - 28.9 °F 100% 30.36 in 10.0 mi Calm Calm - N/A   Clear
3:15 AM 29.3 °F - 29.3 °F 100% 30.36 in 10.0 mi Calm Calm - N/A   Clear
3:35 AM 28.9 °F - 28.9 °F 100% 30.37 in 10.0 mi Calm Calm - N/A   Clear
3:55 AM 28.9 °F - 28.9 °F 100% 30.38 in 10.0 mi Calm Calm - N/A   Clear
4:15 AM 28.4 °F - 28.4 °F 100% 30.38 in 10.0 mi Calm Calm - N/A   Clear
4:35 AM 28.6 °F - 28.6 °F 100% 30.39 in 10.0 mi Calm Calm - N/A   Clear
4:55 AM 28.8 °F - 28.8 °F 100% 30.39 in 10.0 mi Calm Calm - N/A   Clear
5:15 AM 28.6 °F - 28.6 °F 100% 30.38 in 10.0 mi Calm Calm - N/A   Clear
5:35 AM 27.5 °F - 27.5 °F 100% 30.39 in 10.0 mi Calm Calm - N/A   Clear
5:55 AM 28.2 °F - 28.2 °F 100% 30.39 in 10.0 mi Calm Calm - N/A   Clear
6:15 AM 28.0 °F - 28.0 °F 100% 30.39 in 10.0 mi Calm Calm - N/A   Clear
6:35 AM 27.1 °F - 27.1 °F 100% 30.39 in 10.0 mi Calm Calm - N/A   Clear
6:55 AM 27.0 °F - 27.0 °F 100% 30.40 in 10.0 mi Calm Calm - N/A   Clear
7:15 AM 27.1 °F - 27.1 °F 100% 30.41 in 10.0 mi Calm Calm - N/A   Clear
7:35 AM 27.1 °F - 27.1 °F 100% 30.43 in 10.0 mi Calm Calm - N/A   Clear
7:55 AM 28.0 °F - 28.0 °F 100% 30.43 in 10.0 mi Calm Calm - N/A   Clear
8:15 AM 29.8 °F - 29.8 °F 100% 30.43 in 10.0 mi Calm Calm - N/A   Clear
8:35 AM 31.5 °F - 31.5 °F 100% 30.43 in 10.0 mi Calm Calm - N/A   Clear
8:55 AM 32.5 °F - 32.5 °F 100% 30.44 in 10.0 mi Calm Calm - N/A   Clear
9:15 AM 36.1 °F - 36.1 °F 100% 30.44 in 10.0 mi Calm Calm - N/A   Clear
9:35 AM 37.6 °F - 36.9 °F 97% 30.44 in 10.0 mi Calm Calm - N/A   Clear
9:55 AM 41.5 °F - 39.6 °F 93% 30.44 in 10.0 mi Calm Calm - N/A   Clear
10:15 AM 44.6 °F - 40.1 °F 84% 30.44 in 10.0 mi Calm Calm - N/A   Clear
10:35 AM 45.9 °F - 40.1 °F 80% 30.44 in 10.0 mi Calm Calm - N/A   Clear
10:55 AM 48.0 °F - 41.0 °F 77% 30.43 in 10.0 mi East 3.5 mph - N/A   Clear
11:15 AM 49.5 °F - 40.6 °F 72% 30.42 in 7.0 mi NE 3.5 mph - N/A   Clear
11:35 AM 51.3 °F - 41.0 °F 68% 30.41 in 10.0 mi East 3.5 mph - N/A   Clear
11:55 AM 52.5 °F - 41.0 °F 65% 30.40 in 10.0 mi East 4.6 mph - N/A   Clear
12:15 PM 53.6 °F - 40.6 °F 62% 30.39 in 10.0 mi Calm Calm - N/A   Clear
12:35 PM 54.0 °F - 40.8 °F 61% 30.38 in 10.0 mi NE 4.6 mph - N/A   Clear
12:55 PM 54.3 °F - 41.0 °F 61% 30.35 in 10.0 mi Calm Calm - N/A   Clear
1:15 PM 56.7 °F - 41.2 °F 56% 30.33 in 10.0 mi South 3.5 mph - N/A   Clear
1:35 PM 55.6 °F - 40.6 °F 57% 30.33 in 10.0 mi NNE 5.8 mph - N/A   Clear
2:15 PM 56.8 °F - 41.4 °F 56% 30.30 in 10.0 mi Calm Calm - N/A   Clear
2:35 PM 58.5 °F - 41.7 °F 54% 30.29 in 1.8 mi Calm Calm - N/A   Unknown
2:55 PM 57.9 °F - 41.5 °F 54% 30.28 in 1.8 mi Calm Calm - N/A   Unknown
3:15 PM 58.8 °F - 42.3 °F 54% 30.27 in 1.5 mi ENE 4.6 mph - N/A   Unknown
3:35 PM 58.3 °F - 41.4 °F 53% 30.27 in 4.0 mi Calm Calm - N/A   Clear
3:55 PM 58.1 °F - 41.9 °F 55% 30.29 in 10.0 mi Calm Calm - N/A   Clear
4:15 PM 57.9 °F - 41.5 °F 54% 30.28 in 7.0 mi North 3.5 mph - N/A   Clear
4:35 PM 55.6 °F - 40.3 °F 56% 30.28 in 10.0 mi North 3.5 mph - N/A   Clear
5:15 PM 51.4 °F - 41.7 °F 69% 30.28 in 10.0 mi Calm Calm - N/A   Clear
5:35 PM 49.1 °F - 41.0 °F 74% 30.28 in 10.0 mi Calm Calm - N/A   Clear
5:55 PM 46.9 °F - 40.6 °F 79% 30.28 in 10.0 mi Calm Calm - N/A   Clear
6:15 PM 44.4 °F - 40.3 °F 85% 30.29 in 10.0 mi Calm Calm - N/A   Clear
6:35 PM 42.3 °F - 40.1 °F 92% 30.28 in 10.0 mi Calm Calm - N/A   Clear
6:55 PM 40.6 °F - 39.7 °F 97% 30.29 in 10.0 mi Calm Calm - N/A   Clear
7:15 PM 40.3 °F - 39.6 °F 97% 30.29 in 10.0 mi Calm Calm - N/A   Clear
7:35 PM 39.2 °F - 39.2 °F 100% 30.29 in 10.0 mi Calm Calm - N/A   Clear
7:55 PM 38.3 °F - 38.3 °F 100% 30.29 in 10.0 mi Calm Calm - N/A   Clear
8:15 PM 37.6 °F - 37.6 °F 100% 30.30 in 10.0 mi Calm Calm - N/A   Clear
8:35 PM 37.0 °F - 37.0 °F 100% 30.29 in 10.0 mi Calm Calm - N/A   Clear
8:55 PM 36.5 °F - 36.5 °F 100% 30.29 in 10.0 mi Calm Calm - N/A   Clear
9:35 PM 34.2 °F - 34.2 °F 100% 30.30 in 10.0 mi Calm Calm - N/A   Clear
9:55 PM 34.7 °F - 34.7 °F 100% 30.30 in 10.0 mi Calm Calm - N/A   Clear
10:15 PM 34.7 °F - 34.7 °F 100% 30.29 in 10.0 mi Calm Calm - N/A   Clear
10:35 PM 34.2 °F - 34.2 °F 100% 30.29 in 10.0 mi Calm Calm - N/A   Clear
10:55 PM 34.2 °F - 34.2 °F 100% 30.30 in 10.0 mi Calm Calm - N/A   Clear
11:15 PM 33.8 °F - 33.8 °F 100% 30.30 in 10.0 mi Calm Calm - N/A   Clear
11:35 PM 33.3 °F - 33.3 °F 100% 30.29 in 10.0 mi Calm Calm - N/A   Clear
11:55 PM 33.6 °F 30.6 °F 33.6 °F 100% 30.28 in 10.0 mi East 3.5 mph - N/A   Clear